Terminal Aerodrome Forecast
Issued by NWS Newport/Morehead City, NC

Home | Current Version | Previous Version | Text Only | Print | Product List | Glossary Off
Versions: 1 2 3 4 5 6 7 8 9 10 11 12 13 14 15 16 17

277
FTUS42 KMHX 130050 AAA
TAFEWN
TAF AMD
KEWN 130050Z 1301/1324 32004KT P6SM OVC004
     FM130700 30005KT P6SM SCT010
     FM131300 32012G21KT P6SM SKC=

USA.gov is the U.S. government's official web portal to all federal, state and local government web resources and services.